Kazan, Russia

4:29 AM MSK on December 07, 2019 (GMT +0300)
Kazan

Weather History for UWKD - October, 2019

Change the Weather History Date:

Monday, October 7, 2019

  Actual Average Record
Temperature  
Mean Temperature 50 °F -  
Max Temperature 64 °F - - ()
Min Temperature 37 °F - - ()
Degree Days  
Heating Degree Days 14    
Moisture  
Dew Point 29 °F    
Average Humidity 40    
Maximum Humidity 87    
Minimum Humidity 11    
Precipitation  
Precipitation 0.00 in - - ()
Sea Level Pressure  
Sea Level Pressure 29.64 in    
Wind  
Wind Speed 11 mph ()    
Max Wind Speed 22 mph    
Max Gust Speed 34 mph    
Visibility 6.1 miles    
Events Rain    
T = Trace of Precipitation, MM = Missing Value Source: Averaged Metar Reports

Daily Weather History Graph

Daily Weather History Graph

Search for Another Location

Airport or City:

Astronomy

Oct. 07, 2019 Rise Set
Actual Time 5:56 AM MSK 5:04 PM MSK
Civil Twilight 5:19 AM MSK 5:40 PM MSK
Nautical Twilight 4:36 AM MSK 6:23 PM MSK
Astronomical Twilight 3:53 AM MSK 7:06 PM MSK
Moon 3:25 PM MSK 11:11 PM MSK
Length of Visible Light 12h 21m
Length of Day
11h 07m
Waxing Gibbous, 66% of the Moon is Illuminated
Oct 7
Waxing Gibbous
Oct 14
Full
Oct 21
Last Quarter
Oct 28
New
Nov 4
First Quarter

Hourly Weather History & Observations

Time (MSK) Temp. Windchill Dew Point Humidity Pressure Visibility Wind Dir Wind Speed Gust Speed Precip Events Conditions
12:00 AM 58 °F - 26 °F 18% 29.69 in 6 mi SE 8.9 mph - -   Mostly Cloudy
12:00 AM 57.2 °F - 28.4 °F 33% 29.68 in - SE 13.4 mph 24.6 mph N/A   Clear
12:30 AM 55.4 °F - 28.4 °F 36% 29.68 in - SE 13.4 mph - N/A   Clear
1:30 AM 55.4 °F - 28.4 °F 36% 29.68 in - SE 11.2 mph 22.4 mph N/A   Clear
2:30 AM 55.4 °F - 28.4 °F 36% 29.68 in - SE 15.7 mph - N/A   Clear
3:00 AM 57 °F - 25 °F 18% 29.69 in 6 mi SE 6.7 mph - -   Overcast
3:00 AM 53.6 °F - 28.4 °F 38% 29.65 in - SSE 13.4 mph - N/A   Clear
3:30 AM 53.6 °F - 30.2 °F 41% 29.65 in - SSE 11.2 mph - N/A   Clear
4:00 AM 53.6 °F - 30.2 °F 41% 29.65 in - SSE 11.2 mph - N/A   Clear
4:30 AM 51.8 °F - 30.2 °F 44% 29.65 in - SE 13.4 mph - N/A   Clear
5:00 AM 51.8 °F - 28.4 °F 41% 29.68 in - SE 11.2 mph 22.4 mph N/A   Clear
6:00 AM 53 °F - 26 °F 23% 29.69 in 6 mi ESE 4.5 mph - -   Overcast
6:00 AM 48.2 °F - 28.4 °F 46% 29.68 in - SE 8.9 mph - N/A   Clear
6:30 AM 48.2 °F - 28.4 °F 46% 29.68 in - SE 11.2 mph - N/A   Clear
7:30 AM 51.8 °F - 28.4 °F 41% 29.68 in - ESE 15.7 mph - N/A   Clear
8:00 AM 53.6 °F - 28.4 °F 38% 29.68 in - SE 13.4 mph - N/A   Clear
8:30 AM 55.4 °F - 26.6 °F 33% 29.68 in - SE 8.9 mph 20.1 mph N/A   Clear
9:00 AM 56 °F - 24 °F 17% 29.69 in 6 mi SSE 6.7 mph - -   Overcast
9:00 AM 55.4 °F - 24.8 °F 31% 29.65 in - SSE 8.9 mph 20.1 mph N/A   Clear
9:30 AM 55.4 °F - 26.6 °F 33% 29.68 in - SSE 8.9 mph 20.1 mph N/A   Clear
10:00 AM 59.0 °F - 26.6 °F 29% 29.68 in - SSE 13.4 mph 24.6 mph N/A   Clear
10:30 AM 59.0 °F - 26.6 °F 29% 29.65 in - SSE 8.9 mph 20.1 mph N/A   Clear
11:00 AM 59.0 °F - 26.6 °F 29% 29.65 in - SE 13.4 mph - N/A   Clear
11:30 AM 59.0 °F - 28.4 °F 31% 29.65 in - SE 11.2 mph 22.4 mph N/A   Clear
12:00 PM 61 °F - 26 °F 15% 29.65 in 6 mi SE 6.7 mph - -   Overcast
12:30 PM 64.4 °F - 28.4 °F 26% 29.62 in - SE 13.4 mph 24.6 mph N/A   Clear
1:00 PM 64.4 °F - 26.6 °F 24% 29.62 in - SE 11.2 mph 22.4 mph N/A   Clear
1:30 PM 64.4 °F - 28.4 °F 26% 29.62 in - SE 20.1 mph 31.3 mph N/A   Clear
2:00 PM 64.4 °F - 28.4 °F 26% 29.59 in - SE 11.2 mph 22.4 mph N/A   Clear
2:30 PM 64.4 °F - 30.2 °F 28% 29.59 in - SE 8.9 mph 20.1 mph N/A   Clear
3:00 PM 64 °F - 29 °F 16% 29.60 in 6 mi ESE 6.7 mph - -   Overcast
3:00 PM 62.6 °F - 30.2 °F 30% 29.56 in - SE 8.9 mph 20.1 mph N/A   Clear
3:30 PM 64.4 °F - 28.4 °F 26% 29.56 in - SE 11.2 mph 22.4 mph N/A   Clear
4:00 PM 62.6 °F - 24.8 °F 24% 29.56 in - SE 11.2 mph 22.4 mph N/A   Clear
4:30 PM 62.6 °F - 24.8 °F 24% 29.56 in - SE 13.4 mph 24.6 mph N/A   Clear
5:00 PM 62.6 °F - 24.8 °F 24% 29.53 in - SE 15.7 mph 26.8 mph N/A   Clear
5:30 PM 60.8 °F - 24.8 °F 25% 29.53 in - SE 15.7 mph 26.8 mph N/A   Clear
6:00 PM 64 °F - 22 °F 11%  in 6 mi ESE 6.7 mph - -   Overcast
6:00 PM 60.8 °F - 26.6 °F 27% 29.50 in - SE 15.7 mph 26.8 mph N/A   Clear
6:30 PM 59.0 °F - 30.2 °F 34% 29.53 in - SSW 22.4 mph 33.6 mph N/A   Clear
7:00 PM 55.4 °F - 33.8 °F 44% 29.56 in - SSW 15.7 mph 26.8 mph N/A   Clear
7:30 PM 50.0 °F - 42.8 °F 76% 29.59 in 5.6 mi SSW 15.7 mph 26.8 mph N/A Rain Light Rain Showers
8:00 PM 46.4 °F 39.9 °F 42.8 °F 87% 29.59 in 6.2 mi South 15.7 mph 26.8 mph N/A Rain Light Rain Showers
8:30 PM 46.4 °F 40.5 °F 42.8 °F 87% 29.62 in 6.2 mi South 13.4 mph - N/A Rain Light Rain Showers
9:00 PM 46.4 °F 40.5 °F 42.8 °F 87% 29.65 in 6.2 mi WSW 13.4 mph 24.6 mph N/A Rain Light Rain Showers
9:30 PM 42.8 °F 35.2 °F 39.2 °F 87% 29.65 in 6.2 mi West 15.7 mph 26.8 mph N/A   Mostly Cloudy
10:00 PM 39.2 °F 29.4 °F 35.6 °F 87% 29.71 in 6.2 mi West 20.1 mph 31.3 mph N/A   Mostly Cloudy
10:30 PM 37.4 °F 28.3 °F 33.8 °F 87% 29.74 in 6.2 mi West 15.7 mph 26.8 mph N/A   Mostly Cloudy
11:00 PM 37.4 °F 28.3 °F 33.8 °F 87% 29.77 in 6.2 mi West 15.7 mph 26.8 mph N/A   Mostly Cloudy
11:30 PM 37.4 °F 27.6 °F 32.0 °F 81% 29.80 in 6.2 mi West 17.9 mph 29.1 mph N/A   Mostly Cloudy